WAT8PY RJOM-RJSS

Flight info

Callsign WAT8PY
Flight time 1h 12m
Altitude 37000
Route MYE Y33 LABEL Y121 SWING Y88 TENRU Y15 OWLET
Aircraft B38M/M-SDE1FGHILORVWXY/HB1

Departure

Time 2026-04-29 21:44
Airport Matsuyama Airport (RJOM)

Arrival

Time 2026-04-29 22:57
Airport Sendai Airport (RJSS)
Time Latitude Longitude Altitude Speed Heading
2026-04-29 21:26 33.82875 132.70311 28 ft 0 kts 41°
2026-04-29 21:36 33.82874 132.70309 28 ft 2 kts 41°
2026-04-29 21:36 33.82854 132.70289 28 ft 4 kts 41°
2026-04-29 21:36 33.82833 132.70268 28 ft 4 kts 41°
2026-04-29 21:37 33.82813 132.70246 27 ft 4 kts 41°
2026-04-29 21:37 33.82795 132.70227 27 ft 4 kts 38°
2026-04-29 21:37 33.82774 132.70218 27 ft 4 kts 344°
2026-04-29 21:37 33.82754 132.70234 27 ft 3 kts 312°
2026-04-29 21:38 33.82749 132.70241 27 ft 0 kts 311°
2026-04-29 21:39 33.82755 132.70230 27 ft 5 kts 306°
2026-04-29 21:39 33.82800 132.70163 27 ft 14 kts 310°
2026-04-29 21:40 33.82860 132.70078 28 ft 13 kts 310°
2026-04-29 21:40 33.82914 132.70003 28 ft 11 kts 311°
2026-04-29 21:40 33.82960 132.69939 28 ft 9 kts 310°
2026-04-29 21:40 33.83005 132.69876 28 ft 13 kts 310°
2026-04-29 21:41 33.83076 132.69777 28 ft 17 kts 310°
2026-04-29 21:41 33.83148 132.69676 28 ft 15 kts 310°
2026-04-29 21:41 33.83211 132.69587 28 ft 13 kts 310°
2026-04-29 21:41 33.83283 132.69487 28 ft 20 kts 310°
2026-04-29 21:42 33.83376 132.69356 28 ft 20 kts 310°
2026-04-29 21:42 33.83463 132.69235 27 ft 18 kts 311°
2026-04-29 21:42 33.83535 132.69133 28 ft 12 kts 305°
2026-04-29 21:42 33.83542 132.69047 27 ft 11 kts 243°
2026-04-29 21:43 33.83479 132.68973 27 ft 13 kts 220°
2026-04-29 21:43 33.83428 132.68979 26 ft 12 kts 133°
2026-04-29 21:43 33.83237 132.69245 27 ft 78 kts 130°
2026-04-29 21:43 33.82739 132.69941 26 ft 139 kts 130°
2026-04-29 21:44 33.82036 132.70926 377 ft 159 kts 129°
2026-04-29 21:44 33.81305 132.71966 1039 ft 165 kts 130°
2026-04-29 21:44 33.80541 132.73005 1637 ft 167 kts 134°
2026-04-29 21:44 33.79477 132.73728 1942 ft 191 kts 164°
2026-04-29 21:45 33.78053 132.73692 2191 ft 221 kts 195°
2026-04-29 21:45 33.76542 132.73060 2606 ft 240 kts 197°
2026-04-29 21:45 33.74892 132.72403 3002 ft 258 kts 197°
2026-04-29 21:45 33.73151 132.71723 3644 ft 263 kts 197°
2026-04-29 21:46 33.71431 132.71059 4621 ft 258 kts 197°
2026-04-29 21:46 33.69727 132.70406 5458 ft 255 kts 197°
2026-04-29 21:46 33.67992 132.70034 6153 ft 258 kts 178°
2026-04-29 21:46 33.66268 132.70641 6814 ft 264 kts 152°
2026-04-29 21:47 33.64746 132.71922 7454 ft 270 kts 146°
2026-04-29 21:47 33.63225 132.73275 8155 ft 273 kts 146°
2026-04-29 21:47 33.61701 132.74646 8898 ft 276 kts 146°
2026-04-29 21:47 33.60153 132.76047 9503 ft 281 kts 146°
2026-04-29 21:48 33.58745 132.77691 10157 ft 289 kts 127°
2026-04-29 21:48 33.57973 132.79957 10482 ft 312 kts 102°
2026-04-29 21:48 33.58087 132.82626 10786 ft 332 kts 78°
2026-04-29 21:48 33.58694 132.85352 11163 ft 344 kts 78°
2026-04-29 21:49 33.59279 132.88163 11793 ft 348 kts 78°
2026-04-29 21:49 33.59863 132.91019 12327 ft 357 kts 78°
2026-04-29 21:49 33.60448 132.93918 13078 ft 359 kts 78°
2026-04-29 21:49 33.61037 132.96862 13635 ft 368 kts 78°
2026-04-29 21:50 33.61636 132.99867 14274 ft 372 kts 78°
2026-04-29 21:50 33.62244 133.02910 14807 ft 379 kts 78°
2026-04-29 21:50 33.62861 133.06010 15409 ft 383 kts 78°
2026-04-29 21:50 33.63484 133.09143 16007 ft 389 kts 79°
2026-04-29 21:51 33.64116 133.12322 16584 ft 395 kts 78°
2026-04-29 21:51 33.64757 133.15557 17170 ft 401 kts 78°
2026-04-29 21:51 33.66059 133.22135 18293 ft 409 kts 77°
2026-04-29 21:52 33.66719 133.25480 18746 ft 414 kts 78°
2026-04-29 21:52 33.67383 133.28852 19273 ft 418 kts 78°
2026-04-29 21:52 33.68048 133.32229 19715 ft 423 kts 78°
2026-04-29 21:52 33.68725 133.35676 20207 ft 425 kts 78°
2026-04-29 21:53 33.69406 133.39145 20698 ft 428 kts 78°
2026-04-29 21:53 33.70091 133.42641 21181 ft 432 kts 78°
2026-04-29 21:53 33.70780 133.46167 21633 ft 436 kts 78°
2026-04-29 21:53 33.71755 133.49616 22096 ft 438 kts 61°
2026-04-29 21:54 33.73252 133.52800 22629 ft 440 kts 59°
2026-04-29 21:54 33.74787 133.56001 23013 ft 445 kts 58°
2026-04-29 21:54 33.76351 133.59223 23519 ft 448 kts 58°
2026-04-29 21:54 33.77937 133.62466 23904 ft 452 kts 58°
2026-04-29 21:55 33.79539 133.65735 24286 ft 455 kts 57°
2026-04-29 21:55 33.81153 133.69031 24692 ft 459 kts 57°
2026-04-29 21:55 33.82779 133.72352 25148 ft 462 kts 58°
2026-04-29 21:55 33.84406 133.75679 25633 ft 463 kts 58°
2026-04-29 21:56 33.86045 133.79030 26008 ft 466 kts 58°
2026-04-29 21:56 33.87692 133.82405 26418 ft 469 kts 58°
2026-04-29 21:56 33.89349 133.85800 26802 ft 471 kts 58°
2026-04-29 21:56 33.91010 133.89212 27228 ft 474 kts 58°
2026-04-29 21:57 33.92681 133.92644 27614 ft 477 kts 58°
2026-04-29 21:57 33.94366 133.96110 27978 ft 481 kts 58°
2026-04-29 21:57 33.96061 133.99595 28358 ft 483 kts 58°
2026-04-29 21:57 33.97760 134.03096 28734 ft 485 kts 58°
2026-04-29 21:58 33.99466 134.06612 29059 ft 488 kts 58°
2026-04-29 21:58 34.01180 134.10152 29453 ft 490 kts 58°
2026-04-29 21:58 34.02903 134.13711 29798 ft 493 kts 58°
2026-04-29 21:58 34.04637 134.17297 30137 ft 496 kts 58°
2026-04-29 21:59 34.06379 134.20905 30442 ft 499 kts 58°
2026-04-29 21:59 34.08106 134.24484 30713 ft 502 kts 58°
2026-04-29 21:59 34.09888 134.28181 30929 ft 506 kts 58°
2026-04-29 21:59 34.11666 134.31872 31279 ft 508 kts 58°
2026-04-29 22:00 34.13417 134.35514 31538 ft 511 kts 58°
2026-04-29 22:00 34.15210 134.39245 31805 ft 514 kts 59°
2026-04-29 22:00 34.17002 134.42978 32085 ft 516 kts 58°
2026-04-29 22:00 34.18805 134.46737 32384 ft 518 kts 58°
2026-04-29 22:01 34.20616 134.50518 32682 ft 520 kts 58°
2026-04-29 22:01 34.22425 134.54302 32980 ft 522 kts 59°
2026-04-29 22:01 34.24244 134.58105 33229 ft 525 kts 59°
2026-04-29 22:01 34.26075 134.61941 33490 ft 526 kts 59°
2026-04-29 22:02 34.27910 134.65784 33753 ft 529 kts 58°
2026-04-29 22:02 34.29751 134.69651 34004 ft 532 kts 58°
2026-04-29 22:02 34.31599 134.73535 34279 ft 534 kts 59°
2026-04-29 22:02 34.33436 134.77396 34465 ft 537 kts 59°
2026-04-29 22:03 34.35297 134.81312 34678 ft 539 kts 59°
2026-04-29 22:03 34.37137 134.85288 34888 ft 542 kts 64°
2026-04-29 22:03 34.38375 134.89574 35168 ft 540 kts 79°
2026-04-29 22:03 34.39162 134.94031 35402 ft 542 kts 80°
2026-04-29 22:04 34.39936 134.98504 35534 ft 545 kts 80°
2026-04-29 22:04 34.40689 135.03013 35777 ft 546 kts 80°
2026-04-29 22:04 34.41426 135.07537 35977 ft 548 kts 80°
2026-04-29 22:04 34.42159 135.12069 36218 ft 548 kts 80°
2026-04-29 22:05 34.42888 135.16594 36445 ft 549 kts 80°
2026-04-29 22:05 34.43618 135.21130 36739 ft 548 kts 80°
2026-04-29 22:05 34.45068 135.30185 37180 ft 548 kts 80°
2026-04-29 22:06 34.45791 135.34715 37167 ft 547 kts 80°
2026-04-29 22:06 34.47217 135.43680 37166 ft 545 kts 80°
2026-04-29 22:07 34.48654 135.52763 37159 ft 546 kts 80°
2026-04-29 22:07 34.50069 135.61746 37160 ft 547 kts 80°
2026-04-29 22:08 34.51493 135.70839 37171 ft 550 kts 80°
2026-04-29 22:08 34.52912 135.79951 37156 ft 549 kts 79°
2026-04-29 22:09 34.54320 135.89035 37166 ft 547 kts 79°
2026-04-29 22:09 34.55719 135.98106 37170 ft 547 kts 79°
2026-04-29 22:10 34.57112 136.07184 37164 ft 548 kts 79°
2026-04-29 22:10 34.58558 136.16275 37156 ft 548 kts 73°
2026-04-29 22:10 34.59922 136.20501 37157 ft 541 kts 58°
2026-04-29 22:11 34.61661 136.24558 37152 ft 544 kts 59°
2026-04-29 22:11 34.64566 136.31331 37139 ft 543 kts 58°
2026-04-29 22:12 34.68103 136.39453 37171 ft 544 kts 58°
2026-04-29 22:12 34.72217 136.48910 37157 ft 543 kts 58°
2026-04-29 22:13 34.75175 136.55723 37152 ft 543 kts 58°
2026-04-29 22:13 34.78699 136.63861 37156 ft 544 kts 58°
2026-04-29 22:14 34.82200 136.71962 37156 ft 544 kts 58°
2026-04-29 22:14 34.86062 136.79804 37138 ft 530 kts 40°
2026-04-29 22:14 34.88743 136.82727 37156 ft 509 kts 25°
2026-04-29 22:15 34.91646 136.85213 37146 ft 513 kts 26°
2026-04-29 22:15 34.97467 136.90238 37154 ft 512 kts 25°
2026-04-29 22:16 35.03314 136.95231 37145 ft 512 kts 25°
2026-04-29 22:16 35.09145 137.00213 37179 ft 511 kts 25°
2026-04-29 22:17 35.14967 137.05198 37149 ft 510 kts 25°
2026-04-29 22:17 35.20784 137.10187 37149 ft 511 kts 25°
2026-04-29 22:18 35.26571 137.15159 37149 ft 511 kts 25°
2026-04-29 22:18 35.32387 137.20165 37148 ft 511 kts 25°
2026-04-29 22:19 35.38030 137.25541 37146 ft 527 kts 40°
2026-04-29 22:19 35.40199 137.29235 37123 ft 542 kts 57°
2026-04-29 22:19 35.41805 137.33450 37178 ft 548 kts 60°
2026-04-29 22:20 35.45051 137.41926 37167 ft 548 kts 60°
2026-04-29 22:20 35.48282 137.50406 37160 ft 549 kts 60°
2026-04-29 22:21 35.51514 137.58895 37151 ft 549 kts 60°
2026-04-29 22:21 35.54722 137.67344 37144 ft 548 kts 60°
2026-04-29 22:22 35.57938 137.75838 37172 ft 549 kts 60°
2026-04-29 22:22 35.61070 137.84396 37193 ft 549 kts 61°
2026-04-29 22:23 35.64178 137.92971 37192 ft 549 kts 61°
2026-04-29 22:23 35.67828 138.01060 37133 ft 528 kts 39°
2026-04-29 22:23 35.70481 138.04028 37219 ft 508 kts 27°
2026-04-29 22:24 35.73269 138.06778 37161 ft 515 kts 28°
2026-04-29 22:24 35.78843 138.12291 37196 ft 515 kts 28°
2026-04-29 22:25 35.84417 138.17757 37212 ft 514 kts 28°
2026-04-29 22:25 35.90025 138.23258 37161 ft 513 kts 28°
2026-04-29 22:25 35.92821 138.26004 37292 ft 515 kts 28°
2026-04-29 22:26 35.95631 138.28767 37223 ft 516 kts 28°
2026-04-29 22:26 36.01231 138.34282 37209 ft 514 kts 28°
2026-04-29 22:27 36.06833 138.39808 37183 ft 515 kts 28°
2026-04-29 22:27 36.12447 138.45357 37238 ft 518 kts 28°
2026-04-29 22:28 36.18064 138.50919 37243 ft 516 kts 28°
2026-04-29 22:28 36.23672 138.56499 37207 ft 517 kts 28°
2026-04-29 22:29 36.29241 138.62055 37220 ft 517 kts 28°
2026-04-29 22:29 36.34877 138.67687 37239 ft 518 kts 28°
2026-04-29 22:30 36.40449 138.73268 37241 ft 519 kts 28°
2026-04-29 22:30 36.46076 138.78914 37249 ft 520 kts 28°
2026-04-29 22:31 36.51707 138.84575 37237 ft 520 kts 28°
2026-04-29 22:31 36.57330 138.90238 37241 ft 519 kts 28°
2026-04-29 22:32 36.62916 138.95875 37224 ft 520 kts 28°
2026-04-29 22:32 36.68531 139.01552 37256 ft 520 kts 28°
2026-04-29 22:33 36.74151 139.07247 36933 ft 520 kts 28°
2026-04-29 22:33 36.76982 139.10116 35990 ft 528 kts 28°
2026-04-29 22:33 36.79857 139.13031 34967 ft 537 kts 29°
2026-04-29 22:33 36.82778 139.15989 33995 ft 544 kts 29°
2026-04-29 22:34 36.85715 139.18961 33342 ft 541 kts 30°
2026-04-29 22:34 36.88613 139.21895 33079 ft 529 kts 29°
2026-04-29 22:34 36.91443 139.24761 32805 ft 519 kts 29°
2026-04-29 22:34 36.94231 139.27587 32291 ft 516 kts 30°
2026-04-29 22:35 36.97018 139.30416 31641 ft 516 kts 30°
2026-04-29 22:35 36.99804 139.33248 30987 ft 516 kts 30°
2026-04-29 22:35 37.02579 139.36069 30454 ft 512 kts 30°
2026-04-29 22:35 37.05290 139.38829 29963 ft 506 kts 30°
2026-04-29 22:36 37.08014 139.41607 29410 ft 501 kts 30°
2026-04-29 22:36 37.10704 139.44350 28912 ft 496 kts 30°
2026-04-29 22:36 37.13362 139.47064 28399 ft 491 kts 31°
2026-04-29 22:36 37.15994 139.49752 27897 ft 485 kts 31°
2026-04-29 22:37 37.18601 139.52418 27377 ft 481 kts 31°
2026-04-29 22:37 37.21185 139.55061 26946 ft 477 kts 31°
2026-04-29 22:37 37.23749 139.57688 26465 ft 475 kts 31°
2026-04-29 22:37 37.26294 139.60297 25974 ft 472 kts 31°
2026-04-29 22:38 37.28829 139.62900 25513 ft 468 kts 32°
2026-04-29 22:38 37.31346 139.65484 25046 ft 465 kts 32°
2026-04-29 22:38 37.33845 139.68053 24586 ft 463 kts 32°
2026-04-29 22:38 37.36329 139.70609 24148 ft 460 kts 33°
2026-04-29 22:39 37.38794 139.73149 23642 ft 459 kts 34°
2026-04-29 22:39 37.40976 139.76130 23018 ft 468 kts 51°
2026-04-29 22:39 37.42719 139.79557 22618 ft 461 kts 52°
2026-04-29 22:39 37.44469 139.82902 22221 ft 453 kts 52°
2026-04-29 22:40 37.46194 139.86201 21751 ft 449 kts 52°
2026-04-29 22:40 37.47874 139.89417 21312 ft 444 kts 52°
2026-04-29 22:40 37.49563 139.92654 20876 ft 439 kts 52°
2026-04-29 22:40 37.51228 139.95850 20439 ft 434 kts 52°
2026-04-29 22:41 37.52876 139.99015 19998 ft 430 kts 52°
2026-04-29 22:41 37.54507 140.02152 19507 ft 427 kts 53°
2026-04-29 22:41 37.56123 140.05263 19090 ft 422 kts 53°
2026-04-29 22:41 37.57719 140.08339 18688 ft 417 kts 53°
2026-04-29 22:42 37.59289 140.11367 18242 ft 407 kts 52°
2026-04-29 22:42 37.60819 140.14319 17821 ft 396 kts 52°
2026-04-29 22:42 37.62312 140.17205 17333 ft 389 kts 52°
2026-04-29 22:42 37.63775 140.20034 16941 ft 379 kts 52°
2026-04-29 22:43 37.65198 140.22788 16566 ft 370 kts 52°
2026-04-29 22:43 37.66569 140.25442 16215 ft 361 kts 52°
2026-04-29 22:43 37.67924 140.28069 15843 ft 354 kts 52°
2026-04-29 22:43 37.69255 140.30651 15488 ft 346 kts 52°
2026-04-29 22:44 37.70556 140.33176 15131 ft 339 kts 52°
2026-04-29 22:44 37.71830 140.35652 14784 ft 333 kts 52°
2026-04-29 22:44 37.73081 140.38085 14425 ft 328 kts 52°
2026-04-29 22:44 37.74315 140.40486 14026 ft 324 kts 52°
2026-04-29 22:45 37.75528 140.42849 13668 ft 317 kts 52°
2026-04-29 22:45 37.76716 140.45164 13332 ft 311 kts 53°
2026-04-29 22:45 37.77843 140.47465 13081 ft 305 kts 55°
2026-04-29 22:45 37.78934 140.49759 12765 ft 304 kts 54°
2026-04-29 22:46 37.80042 140.52056 12274 ft 309 kts 54°
2026-04-29 22:46 37.81181 140.54410 11655 ft 318 kts 54°
2026-04-29 22:46 37.82364 140.56817 11066 ft 326 kts 54°
2026-04-29 22:46 37.83560 140.59219 10618 ft 328 kts 54°
2026-04-29 22:47 37.84778 140.61646 10308 ft 325 kts 54°
2026-04-29 22:47 37.85978 140.64029 10075 ft 319 kts 54°
2026-04-29 22:47 37.87168 140.66384 9724 ft 316 kts 54°
2026-04-29 22:47 37.88360 140.68725 9351 ft 315 kts 54°
2026-04-29 22:48 37.89547 140.71035 9014 ft 312 kts 54°
2026-04-29 22:48 37.90732 140.73328 8706 ft 309 kts 54°
2026-04-29 22:48 37.91900 140.75594 8385 ft 306 kts 54°
2026-04-29 22:48 37.93043 140.77802 8075 ft 303 kts 54°
2026-04-29 22:49 37.94218 140.80053 7754 ft 300 kts 54°
2026-04-29 22:49 37.95363 140.82237 7450 ft 296 kts 54°
2026-04-29 22:49 37.96506 140.84397 7128 ft 294 kts 54°
2026-04-29 22:49 37.97653 140.86548 6785 ft 293 kts 54°
2026-04-29 22:50 37.98795 140.88674 6453 ft 290 kts 54°
2026-04-29 22:50 37.99928 140.90775 6162 ft 286 kts 54°
2026-04-29 22:50 38.01030 140.92817 6125 ft 273 kts 54°
2026-04-29 22:50 38.02055 140.94747 6056 ft 263 kts 54°
2026-04-29 22:51 38.02968 140.96748 5794 ft 262 kts 61°
2026-04-29 22:51 38.03797 140.98800 5512 ft 261 kts 61°
2026-04-29 22:51 38.05429 141.02876 4960 ft 257 kts 61°
2026-04-29 22:52 38.06242 141.04893 4672 ft 255 kts 62°
2026-04-29 22:52 38.07048 141.06888 4383 ft 253 kts 62°
2026-04-29 22:52 38.07872 141.08844 4102 ft 250 kts 56°
2026-04-29 22:52 38.09109 141.10314 3871 ft 240 kts 27°
2026-04-29 22:53 38.10677 141.10762 3634 ft 228 kts 358°
2026-04-29 22:53 38.12219 141.10479 3373 ft 220 kts 350°
2026-04-29 22:53 38.13683 141.10054 3086 ft 213 kts 339°
2026-04-29 22:53 38.14857 141.08951 2725 ft 212 kts 308°
2026-04-29 22:54 38.15443 141.07252 2389 ft 211 kts 284°
2026-04-29 22:54 38.15521 141.05402 2036 ft 210 kts 267°
2026-04-29 22:54 38.15315 141.03570 1702 ft 207 kts 262°
2026-04-29 22:54 38.15113 141.01863 1403 ft 189 kts 264°
2026-04-29 22:55 38.14953 141.00282 1156 ft 171 kts 264°
2026-04-29 22:55 38.14806 140.98872 939 ft 151 kts 264°
2026-04-29 22:55 38.14672 140.97568 720 ft 148 kts 265°
2026-04-29 22:55 38.14538 140.96260 532 ft 151 kts 265°
2026-04-29 22:56 38.14400 140.94928 333 ft 153 kts 265°
2026-04-29 22:56 38.14254 140.93575 123 ft 154 kts 265°
2026-04-29 22:56 38.14117 140.92257 22 ft 141 kts 265°
2026-04-29 22:56 38.14027 140.91333 18 ft 73 kts 263°
2026-04-29 22:57 38.13996 140.91052 20 ft 10 kts 252°
2026-04-29 22:57 38.13951 140.91020 19 ft 8 kts 180°
2026-04-29 22:57 38.13883 140.91027 16 ft 8 kts 174°
2026-04-29 22:57 38.13838 140.91060 16 ft 10 kts 116°
2026-04-29 22:58 38.13845 140.91199 15 ft 22 kts 83°
2026-04-29 22:58 38.13868 140.91418 15 ft 27 kts 82°
2026-04-29 22:58 38.13890 140.91626 16 ft 21 kts 82°
2026-04-29 22:58 38.13910 140.91823 15 ft 24 kts 83°
2026-04-29 22:59 38.13933 140.92041 15 ft 26 kts 82°
2026-04-29 22:59 38.13956 140.92273 15 ft 25 kts 82°
2026-04-29 22:59 38.13975 140.92448 15 ft 20 kts 82°
2026-04-29 22:59 38.13988 140.92576 18 ft 14 kts 82°
2026-04-29 23:00 38.14002 140.92699 17 ft 11 kts 82°
2026-04-29 23:00 38.14000 140.92761 16 ft 5 kts 133°
2026-04-29 23:00 38.13964 140.92779 16 ft 7 kts 169°
2026-04-29 23:00 38.13914 140.92787 15 ft 5 kts 173°
2026-04-29 23:01 38.13892 140.92791 15 ft 2 kts 173°
2026-04-29 23:01 38.13889 140.92791 16 ft 0 kts 173°